| time (UTC) | temp C | wind direction | speed KPH | gust KPH | rain 1hr cm | rain 24hr cm | rain mn cm | humidity % | barometer mb |
| 20260506013817 | -17 | 128 | 4.8 | 8.0 | 0.00 | 0.00 | 0.00 | 998.6 | |
| 20260506013315 | -17 | 124 | 4.8 | 11.3 | 0.00 | 0.00 | 0.00 | 998.7 | |
| 20260506012811 | -17 | 134 | 6.4 | 6.4 | 0.00 | 0.00 | 0.00 | 998.6 | |
| 20260506012308 | -17 | 132 | 6.4 | 8.0 | 0.00 | 0.00 | 0.00 | 998.3 | |
| 20260506011805 | -17 | 135 | 4.8 | 11.3 | 0.00 | 0.00 | 0.00 | 998.3 | |
| 20260506011302 | -17 | 149 | 3.2 | 9.7 | 0.00 | 0.00 | 0.00 | 998.4 | |
| 20260506010800 | -17 | 0 | 1.6 | 8.0 | 0.00 | 0.00 | 0.00 | 998.7 | |
| 20260506010257 | -17 | 99 | 3.2 | 11.3 | 0.00 | 0.00 | 0.00 | 998.4 | |
| 20260506005754 | -17 | 164 | 4.8 | 11.3 | 0.00 | 0.00 | 0.00 | 998.6 | |
| 20260506005251 | -17 | 132 | 6.4 | 8.0 | 0.00 | 0.00 | 0.00 | 998.6 | |
| 20260506004747 | -17 | 118 | 11.3 | 16.1 | 0.00 | 0.00 | 0.00 | 998.5 | |
| 20260506004245 | -17 | 127 | 4.8 | 9.7 | 0.00 | 0.00 | 0.00 | 998.5 | |
| 20260506003740 | -17 | 142 | 4.8 | 12.9 | 0.00 | 0.00 | 0.00 | 998.6 | |
| 20260506003237 | -17 | 72 | 3.2 | 8.0 | 0.00 | 0.00 | 0.00 | 998.6 | |
| 20260506002733 | -17 | 132 | 0.0 | 8.0 | 0.00 | 0.00 | 0.00 | 998.7 | |
| 20260506002229 | -17 | 59 | 0.0 | 4.8 | 0.00 | 0.00 | 0.00 | 998.6 | |
| 20260506001725 | -17 | 126 | 9.7 | 11.3 | 0.00 | 0.00 | 0.00 | 998.4 | |
| 20260506001223 | -17 | 152 | 3.2 | 11.3 | 0.00 | 0.00 | 0.00 | 998.5 | |
| 20260506000720 | -17 | 61 | 0.0 | 6.4 | 0.00 | 0.00 | 0.00 | 998.6 | |
| 20260506000219 | -17 | 71 | 3.2 | 12.9 | 0.00 | 0.00 | 0.00 | 998.7 | |
| 20260505235714 | -17 | 130 | 6.4 | 9.7 | 0.00 | 0.00 | 0.00 | 998.6 | |
| 20260505235212 | -17 | 147 | 9.7 | 12.9 | 0.00 | 0.00 | 0.00 | 998.8 | |
| 20260505234709 | -17 | 124 | 8.0 | 12.9 | 0.00 | 0.00 | 0.00 | 998.8 | |
| 20260505234206 | -17 | 85 | 0.0 | 12.9 | 0.00 | 0.00 | 0.00 | 998.7 | |
| 20260505233702 | -17 | 99 | 8.0 | 9.7 | 0.00 | 0.00 | 0.00 | 998.8 | |
| 20260505233200 | -17 | 110 | 3.2 | 9.7 | 0.00 | 0.00 | 0.00 | 998.9 | |
| 20260505232658 | -17 | 157 | 1.6 | 12.9 | 0.00 | 0.00 | 0.00 | 999.0 | |
| 20260505232155 | -17 | 66 | 4.8 | 16.1 | 0.00 | 0.00 | 0.00 | 999.0 | |
| 20260505231652 | -17 | 161 | 3.2 | 12.9 | 0.00 | 0.00 | 0.00 | 999.0 | |
| 20260505231151 | -17 | 129 | 8.0 | 11.3 | 0.00 | 0.00 | 0.00 | 998.9 | |
| 20260505230649 | -17 | 151 | 4.8 | 16.1 | 0.00 | 0.00 | 0.00 | 998.9 | |
| 20260505230145 | -17 | 103 | 12.9 | 16.1 | 0.00 | 0.00 | 0.00 | 998.8 | |
| 20260505225640 | -17 | 141 | 8.0 | 11.3 | 0.00 | 0.00 | 0.00 | 998.9 | |
| 20260505225137 | -17 | 127 | 8.0 | 14.5 | 0.00 | 0.00 | 0.00 | 999.1 | |
| 20260505224634 | -17 | 111 | 4.8 | 8.0 | 0.00 | 0.00 | 0.00 | 999.1 | |
| 20260505224132 | -17 | 148 | 4.8 | 11.3 | 0.00 | 0.00 | 0.00 | 999.3 | |
| 20260505223629 | -17 | 139 | 3.2 | 9.7 | 0.00 | 0.00 | 0.00 | 999.2 | |
| 20260505223125 | -17 | 342 | 3.2 | 6.4 | 0.00 | 0.00 | 0.00 | 999.1 | |
| 20260505222621 | -17 | 121 | 6.4 | 8.0 | 0.00 | 0.00 | 0.00 | 999.1 | |
| 20260505222117 | -17 | 114 | 11.3 | 12.9 | 0.00 | 0.00 | 0.00 | 999.4 | |
| 20260505221614 | -17 | 135 | 3.2 | 16.1 | 0.00 | 0.00 | 0.00 | 999.5 | |
| 20260505221111 | -17 | 254 | 3.2 | 8.0 | 0.00 | 0.00 | 0.00 | 999.6 | |
| 20260505220609 | -17 | 68 | 3.2 | 6.4 | 0.00 | 0.00 | 0.00 | 999.4 | |
| 20260505220106 | -17 | 142 | 6.4 | 16.1 | 0.00 | 0.00 | 0.00 | 999.5 | |
| 20260505215604 | -17 | 332 | 0.0 | 6.4 | 0.00 | 0.00 | 0.00 | 999.6 | |
| 20260505215101 | -17 | 114 | 4.8 | 4.8 | 0.00 | 0.00 | 0.00 | 999.8 | |
| 20260505214600 | -17 | 186 | 0.0 | 11.3 | 0.00 | 0.00 | 0.00 | 999.7 | |
| 20260505214056 | -17 | 45 | 1.6 | 8.0 | 0.00 | 0.00 | 0.00 | 999.6 | |
| 20260505213554 | -17 | 115 | 8.0 | 14.5 | 0.00 | 0.00 | 0.00 | 999.8 | |
| 20260505213050 | -17 | 98 | 4.8 | 11.3 | 0.00 | 0.00 | 0.00 | 999.6 | |
| 20260505212546 | -17 | 118 | 6.4 | 11.3 | 0.00 | 0.00 | 0.00 | 999.7 | |
| 20260505212044 | -17 | 239 | 6.4 | 8.0 | 0.00 | 0.00 | 0.00 | 999.8 | |
| 20260505211541 | -17 | 166 | 6.4 | 9.7 | 0.00 | 0.00 | 0.00 | 999.7 | |
| 20260505211037 | -17 | 142 | 4.8 | 8.0 | 0.00 | 0.00 | 0.00 | 999.8 | |
| 20260505210534 | -17 | 140 | 6.4 | 11.3 | 0.00 | 0.00 | 0.00 | 999.8 | |
| 20260505210031 | -17 | 142 | 8.0 | 9.7 | 0.00 | 0.00 | 0.00 | 1000.0 | |
| 20260505205529 | -17 | 127 | 6.4 | 9.7 | 0.00 | 0.00 | 0.00 | 1000.3 | |
| 20260505205026 | -17 | 113 | 3.2 | 8.0 | 0.00 | 0.00 | 0.00 | 1000.1 | |
| 20260505204518 | -17 | 115 | 11.3 | 11.3 | 0.00 | 0.00 | 0.00 | 1000.0 | |
| 20260505204015 | -17 | 110 | 8.0 | 8.0 | 0.00 | 0.00 | 0.00 | 1000.0 | |
| 20260505203511 | -17 | 125 | 8.0 | 9.7 | 0.00 | 0.00 | 0.00 | 1000.1 | |
| 20260505203008 | -17 | 120 | 8.0 | 11.3 | 0.00 | 0.00 | 0.00 | 1000.0 | |
| 20260505202504 | -17 | 95 | 9.7 | 11.3 | 0.00 | 0.00 | 0.00 | 1000.0 | |
| 20260505202000 | -17 | 73 | 1.6 | 8.0 | 0.00 | 0.00 | 0.00 | 1000.2 | |
| 20260505201458 | -17 | 90 | 3.2 | 6.4 | 0.00 | 0.00 | 0.00 | 1000.3 | |
| 20260505200955 | -17 | 336 | 3.2 | 6.4 | 0.00 | 0.00 | 0.00 | 1000.1 | |
| 20260505200453 | -17 | 343 | 4.8 | 4.8 | 0.00 | 0.00 | 0.00 | 1000.2 | |
| 20260505195948 | -17 | 294 | 4.8 | 8.0 | 0.00 | 0.00 | 0.00 | 1000.1 | |
| 20260505195446 | -17 | 82 | 3.2 | 4.8 | 0.00 | 0.00 | 0.00 | 1000.3 | |
| 20260505194943 | -17 | 147 | 3.2 | 8.0 | 0.00 | 0.00 | 0.00 | 1000.2 | |
| 20260505194440 | -17 | 71 | 4.8 | 4.8 | 0.00 | 0.00 | 0.00 | 1000.1 | |
| 20260505193940 | -17 | 79 | 3.2 | 8.0 | 0.00 | 0.00 | 0.00 | 1000.1 | |
| 20260505193438 | -17 | 99 | 6.4 | 9.7 | 0.00 | 0.00 | 0.00 | 1000.2 | |
| 20260505192936 | -17 | 124 | 6.4 | 11.3 | 0.00 | 0.00 | 0.00 | 1000.3 | |
| 20260505192434 | -17 | 161 | 8.0 | 8.0 | 0.00 | 0.00 | 0.00 | 1000.4 | |
| 20260505191931 | -17 | 114 | 4.8 | 11.3 | 0.00 | 0.00 | 0.00 | 1000.4 | |
| 20260505191430 | -17 | 96 | 6.4 | 9.7 | 0.00 | 0.00 | 0.00 | 1000.3 | |
| 20260505190926 | -17 | 73 | 4.8 | 9.7 | 0.00 | 0.00 | 0.00 | 1000.2 | |
| 20260505190421 | -17 | 114 | 1.6 | 6.4 | 0.00 | 0.00 | 0.00 | 1000.3 | |
| 20260505185917 | -17 | 125 | 3.2 | 9.7 | 0.00 | 0.00 | 0.00 | 1000.3 | |
| 20260505185414 | -17 | 150 | 4.8 | 9.7 | 0.00 | 0.00 | 0.00 | 1000.0 | |
| 20260505184910 | -17 | 174 | 1.6 | 11.3 | 0.00 | 0.00 | 0.00 | 1000.2 | |
| 20260505184407 | -17 | 126 | 8.0 | 8.0 | 0.00 | 0.00 | 0.00 | 1000.3 | |
| 20260505183904 | -17 | 122 | 6.4 | 8.0 | 0.00 | 0.00 | 0.00 | 1000.3 | |
| 20260505183401 | -17 | 138 | 8.0 | 9.7 | 0.00 | 0.00 | 0.00 | 1000.1 | |
| 20260505182858 | -17 | 165 | 3.2 | 4.8 | 0.00 | 0.00 | 0.00 | 1000.0 | |
| 20260505182355 | -17 | 67 | 4.8 | 6.4 | 0.00 | 0.00 | 0.00 | 1000.1 | |
| 20260505181851 | -17 | 335 | 0.0 | 4.8 | 0.00 | 0.00 | 0.00 | 1000.1 | |
| 20260505181348 | -17 | 83 | 1.6 | 4.8 | 0.00 | 0.00 | 0.00 | 1000.2 | |
| 20260505180845 | -17 | 180 | 0.0 | 6.4 | 0.00 | 0.00 | 0.00 | 1000.2 | |
| 20260505180341 | -17 | 0 | 0.0 | 4.8 | 0.00 | 0.00 | 0.00 | 1000.2 | |
| 20260505175838 | -17 | 346 | 1.6 | 4.8 | 0.00 | 0.00 | 0.00 | 1000.0 | |
| 20260505175334 | -17 | 334 | 0.0 | 4.8 | 0.00 | 0.00 | 0.00 | 999.9 | |
| 20260505174831 | -17 | 45 | 3.2 | 8.0 | 0.00 | 0.00 | 0.00 | 1000.1 | |
| 20260505174329 | -17 | 105 | 3.2 | 9.7 | 0.00 | 0.00 | 0.00 | 999.9 | |
| 20260505173824 | -17 | 74 | 3.2 | 8.0 | 0.00 | 0.00 | 0.00 | 999.7 | |
| 20260505173321 | -17 | 66 | 6.4 | 8.0 | 0.00 | 0.00 | 0.00 | 999.9 | |
| 20260505172818 | -17 | 297 | 0.0 | 3.2 | 0.00 | 0.00 | 0.00 | 999.9 | |
| 20260505172315 | -17 | 29 | 0.0 | 4.8 | 0.00 | 0.00 | 0.00 | 999.7 | |
| 20260505171810 | -17 | 109 | 1.6 | 6.4 | 0.00 | 0.00 | 0.00 | 999.8 | |
| 20260505171307 | -17 | 123 | 1.6 | 8.0 | 0.00 | 0.00 | 0.00 | 1000.1 | |
| 20260505170803 | -17 | 106 | 4.8 | 8.0 | 0.00 | 0.00 | 0.00 | 1000.0 | |
| 20260505170300 | -17 | 143 | 3.2 | 8.0 | 0.00 | 0.00 | 0.00 | 999.8 | |
| 20260505165755 | -17 | 105 | 8.0 | 11.3 | 0.00 | 0.00 | 0.00 | 999.5 | |
| 20260505165252 | -17 | 103 | 8.0 | 8.0 | 0.00 | 0.00 | 0.00 | 999.8 | |
| 20260505164747 | -17 | 120 | 1.6 | 9.7 | 0.00 | 0.00 | 0.00 | 999.9 | |
| 20260505164245 | -17 | 162 | 6.4 | 8.0 | 0.00 | 0.00 | 0.00 | 999.9 | |
| 20260505163743 | -17 | 121 | 3.2 | 6.4 | 0.00 | 0.00 | 0.00 | 999.9 | |
| 20260505163241 | -17 | 41 | 3.2 | 6.4 | 0.00 | 0.00 | 0.00 | 1000.0 | |
| 20260505162739 | -17 | 141 | 4.8 | 11.3 | 0.00 | 0.00 | 0.00 | 999.8 | |
| 20260505162235 | -17 | 120 | 6.4 | 8.0 | 0.00 | 0.00 | 0.00 | 999.8 | |
| 20260505161732 | -17 | 80 | 4.8 | 8.0 | 0.00 | 0.00 | 0.00 | 999.9 | |
| 20260505161230 | -17 | 128 | 4.8 | 9.7 | 0.00 | 0.00 | 0.00 | 1000.0 | |
| 20260505160727 | -17 | 152 | 4.8 | 4.8 | 0.00 | 0.00 | 0.00 | 999.8 | |
| 20260505160225 | -17 | 119 | 4.8 | 8.0 | 0.00 | 0.00 | 0.00 | 999.9 | |
| 20260505153203 | -17 | 98 | 8.0 | 9.7 | 0.00 | 0.00 | 0.00 | 999.9 | |
| 20260505152700 | -17 | 135 | 9.7 | 9.7 | 0.00 | 0.00 | 0.00 | 999.8 | |
| 20260505152156 | -17 | 123 | 8.0 | 9.7 | 0.00 | 0.00 | 0.00 | 999.8 | |
| 20260505151651 | -17 | 132 | 3.2 | 4.8 | 0.00 | 0.00 | 0.00 | 999.8 | |
| 20260505151149 | -17 | 106 | 6.4 | 8.0 | 0.00 | 0.00 | 0.00 | 999.8 | |
| 20260505150645 | -17 | 124 | 4.8 | 8.0 | 0.00 | 0.00 | 0.00 | 999.9 | |
| 20260505150142 | -17 | 127 | 3.2 | 6.4 | 0.00 | 0.00 | 0.00 | 999.7 | |
| 20260505140611 | -17 | 135 | 4.8 | 4.8 | 0.00 | 0.00 | 0.00 | 999.6 | |
| 20260505140108 | -17 | 126 | 4.8 | 6.4 | 0.00 | 0.00 | 0.00 | 999.3 | |
| 20260505125024 | -17 | 203 | 0.0 | 3.2 | 0.00 | 0.00 | 0.00 | 998.8 | |
| 20260505124521 | -17 | 277 | 0.0 | 4.8 | 0.00 | 0.00 | 0.00 | 998.8 | |
| 20260505124017 | -17 | 251 | 0.0 | 3.2 | 0.00 | 0.00 | 0.00 | 998.8 | |
| 20260505123514 | -17 | 240 | 3.2 | 3.2 | 0.00 | 0.00 | 0.00 | 998.7 | |
| 20260505123010 | -17 | 229 | 1.6 | 3.2 | 0.00 | 0.00 | 0.00 | 998.7 | |
| 20260505122507 | -17 | 166 | 0.0 | 1.6 | 0.00 | 0.00 | 0.00 | 998.7 | |
| 20260505122004 | -17 | 180 | 0.0 | 3.2 | 0.00 | 0.00 | 0.00 | 998.7 | |
| 20260505121501 | -17 | 198 | 1.6 | 8.0 | 0.00 | 0.00 | 0.00 | 998.7 | |
| 20260505120957 | -17 | 258 | 4.8 | 8.0 | 0.00 | 0.00 | 0.00 | 998.6 | |
| 20260505120453 | -17 | 306 | 4.8 | 9.7 | 0.00 | 0.00 | 0.00 | 998.5 | |
| 20260505115952 | -17 | 209 | 4.8 | 9.7 | 0.00 | 0.00 | 0.00 | 998.7 | |
| 20260505115449 | -17 | 264 | 6.4 | 6.4 | 0.00 | 0.00 | 0.00 | 998.8 | |
| 20260505114947 | -17 | 233 | 4.8 | 8.0 | 0.00 | 0.00 | 0.00 | 998.7 | |
| 20260505114443 | -17 | 247 | 6.4 | 8.0 | 0.00 | 0.00 | 0.00 | 998.8 | |
| 20260505113940 | -17 | 252 | 4.8 | 11.3 | 0.00 | 0.00 | 0.00 | 998.6 | |
| 20260505113436 | -17 | 307 | 6.4 | 9.7 | 0.00 | 0.00 | 0.00 | 998.6 | |
| 20260505112932 | -17 | 315 | 6.4 | 8.0 | 0.00 | 0.00 | 0.00 | 998.6 | |
| 20260505112430 | -17 | 255 | 4.8 | 8.0 | 0.00 | 0.00 | 0.00 | 998.8 | |
| 20260505111926 | -17 | 237 | 4.8 | 9.7 | 0.00 | 0.00 | 0.00 | 998.6 | |
| 20260505111420 | -17 | 266 | 8.0 | 14.5 | 0.00 | 0.00 | 0.00 | 998.7 | |
| 20260505110917 | -17 | 280 | 9.7 | 12.9 | 0.00 | 0.00 | 0.00 | 998.6 | |
| 20260505110414 | -17 | 263 | 9.7 | 11.3 | 0.00 | 0.00 | 0.00 | 998.6 | |
| 20260505101845 | -17 | 258 | 3.2 | 4.8 | 0.00 | 0.00 | 0.00 | 998.6 | |
| 20260505101339 | -17 | 243 | 6.4 | 6.4 | 0.00 | 0.00 | 0.00 | 998.4 | |
| 20260505100836 | -17 | 328 | 3.2 | 6.4 | 0.00 | 0.00 | 0.00 | 998.3 | |
| 20260505100333 | -17 | 319 | 3.2 | 6.4 | 0.00 | 0.00 | 0.00 | 998.3 | |
| 20260505095828 | -17 | 270 | 1.6 | 4.8 | 0.00 | 0.00 | 0.00 | 998.2 | |
| 20260505095326 | -17 | 264 | 0.0 | 4.8 | 0.00 | 0.00 | 0.00 | 998.4 | |
| 20260505094822 | -17 | 75 | 0.0 | 1.6 | 0.00 | 0.00 | 0.00 | 998.2 | |
| 20260505094319 | -17 | 246 | 4.8 | 4.8 | 0.00 | 0.00 | 0.00 | 998.4 | |
| 20260505093814 | -17 | 246 | 0.0 | 1.6 | 0.00 | 0.00 | 0.00 | 998.2 | |
| 20260505093312 | -17 | 246 | 0.0 | 1.6 | 0.00 | 0.00 | 0.00 | 998.3 | |
| 20260505092808 | -17 | 234 | 0.0 | 3.2 | 0.00 | 0.00 | 0.00 | 998.3 | |
| 20260505092308 | -17 | 254 | 0.0 | 3.2 | 0.00 | 0.00 | 0.00 | 998.2 | |
| 20260505091804 | -17 | 209 | 3.2 | 4.8 | 0.00 | 0.00 | 0.00 | 998.3 | |
| 20260505091302 | -17 | 270 | 0.0 | 4.8 | 0.00 | 0.00 | 0.00 | 998.2 | |
| 20260505090800 | -17 | 241 | 3.2 | 4.8 | 0.00 | 0.00 | 0.00 | 998.4 | |
| 20260505090258 | -17 | 221 | 3.2 | 3.2 | 0.00 | 0.00 | 0.00 | 998.0 | |
| 20260505085755 | -17 | 173 | 0.0 | 0.0 | 0.00 | 0.00 | 0.00 | 998.2 | |
| 20260505085253 | -17 | 147 | 0.0 | 3.2 | 0.00 | 0.00 | 0.00 | 998.2 | |
| 20260505084750 | -17 | 160 | 0.0 | 3.2 | 0.00 | 0.00 | 0.00 | 998.1 | |
| 20260505084249 | -17 | 140 | 1.6 | 3.2 | 0.00 | 0.00 | 0.00 | 998.1 | |
| 20260505083746 | -17 | 14 | 0.0 | 0.0 | 0.00 | 0.00 | 0.00 | 998.2 | |
| 20260505083242 | -17 | 215 | 0.0 | 0.0 | 0.00 | 0.00 | 0.00 | 998.1 | |
| 20260505082739 | -17 | 258 | 3.2 | 3.2 | 0.00 | 0.00 | 0.00 | 998.1 | |
| 20260505082236 | -17 | 246 | 0.0 | 1.6 | 0.00 | 0.00 | 0.00 | 998.0 | |
| 20260505081732 | -17 | 234 | 0.0 | 3.2 | 0.00 | 0.00 | 0.00 | 998.1 | |
| 20260505081229 | -17 | 255 | 0.0 | 3.2 | 0.00 | 0.00 | 0.00 | 998.2 | |
| 20260505080726 | -17 | 348 | 0.0 | 4.8 | 0.00 | 0.00 | 0.00 | 998.1 | |
| 20260505080221 | -17 | 203 | 0.0 | 1.6 | 0.00 | 0.00 | 0.00 | 998.2 | |
| 20260505075717 | -17 | 232 | 3.2 | 4.8 | 0.00 | 0.00 | 0.00 | 998.2 | |
| 20260505075215 | -17 | 250 | 3.2 | 3.2 | 0.00 | 0.00 | 0.00 | 997.9 | |
| 20260505074712 | -17 | 270 | 0.0 | 3.2 | 0.00 | 0.00 | 0.00 | 998.1 | |
| 20260505074209 | -17 | 255 | 3.2 | 4.8 | 0.00 | 0.00 | 0.00 | 998.1 | |
| 20260505073707 | -17 | 292 | 3.2 | 4.8 | 0.00 | 0.00 | 0.00 | 998.1 | |
| 20260505073205 | -17 | 294 | 0.0 | 3.2 | 0.00 | 0.00 | 0.00 | 998.1 | |
| 20260505072700 | -17 | 243 | 3.2 | 6.4 | 0.00 | 0.00 | 0.00 | 998.0 | |
| 20260505072156 | -17 | 270 | 3.2 | 6.4 | 0.00 | 0.00 | 0.00 | 998.0 | |
| 20260505071652 | -17 | 295 | 3.2 | 4.8 | 0.00 | 0.00 | 0.00 | 997.9 | |
| 20260505071150 | -17 | 293 | 4.8 | 4.8 | 0.00 | 0.00 | 0.00 | 998.1 | |
| 20260505070647 | -17 | 243 | 3.2 | 6.4 | 0.00 | 0.00 | 0.00 | 998.1 | |
| 20260505070143 | -17 | 242 | 6.4 | 6.4 | 0.00 | 0.00 | 0.00 | 997.9 | |
| 20260505065639 | -17 | 270 | 3.2 | 4.8 | 0.00 | 0.00 | 0.00 | 998.0 | |
| 20260505065136 | -17 | 180 | 0.0 | 1.6 | 0.00 | 0.00 | 0.00 | 997.8 | |
| 20260505064633 | -17 | 278 | 0.0 | 4.8 | 0.00 | 0.00 | 0.00 | 998.0 | |
| 20260505064131 | -17 | 285 | 4.8 | 9.7 | 0.00 | 0.00 | 0.00 | 997.8 | |
| 20260505063628 | -17 | 276 | 4.8 | 8.0 | 0.00 | 0.00 | 0.00 | 997.7 | |
| 20260505063124 | -17 | 248 | 3.2 | 8.0 | 0.00 | 0.00 | 0.00 | 997.8 | |
| 20260505062621 | -17 | 246 | 4.8 | 8.0 | 0.00 | 0.00 | 0.00 | 997.7 | |
| 20260505062118 | -17 | 244 | 4.8 | 8.0 | 0.00 | 0.00 | 0.00 | 997.9 | |
| 20260505061615 | -17 | 290 | 4.8 | 8.0 | 0.00 | 0.00 | 0.00 | 998.0 | |
| 20260505061113 | -17 | 270 | 4.8 | 9.7 | 0.00 | 0.00 | 0.00 | 998.0 | |
| 20260505060611 | -17 | 241 | 6.4 | 9.7 | 0.00 | 0.00 | 0.00 | 997.9 | |
| 20260505060107 | -17 | 250 | 9.7 | 9.7 | 0.00 | 0.00 | 0.00 | 997.9 | |
| 20260505055602 | -17 | 252 | 6.4 | 11.3 | 0.00 | 0.00 | 0.00 | 997.8 | |
| 20260505055059 | -17 | 283 | 1.6 | 11.3 | 0.00 | 0.00 | 0.00 | 997.7 | |
| 20260505054556 | -17 | 221 | 3.2 | 8.0 | 0.00 | 0.00 | 0.00 | 997.7 | |
| 20260505054055 | -17 | 279 | 0.0 | 8.0 | 0.00 | 0.00 | 0.00 | 997.5 | |
| 20260505053551 | -17 | 243 | 3.2 | 6.4 | 0.00 | 0.00 | 0.00 | 997.7 | |
| 20260505053048 | -17 | 225 | 0.0 | 6.4 | 0.00 | 0.00 | 0.00 | 997.6 | |
| 20260505052545 | -17 | 339 | 3.2 | 6.4 | 0.00 | 0.00 | 0.00 | 997.8 | |
| 20260505052043 | -17 | 270 | 0.0 | 1.6 | 0.00 | 0.00 | 0.00 | 997.5 | |
| 20260505051539 | -17 | 166 | 3.2 | 4.8 | 0.00 | 0.00 | 0.00 | 997.6 | |
| 20260505051038 | -17 | 180 | 3.2 | 6.4 | 0.00 | 0.00 | 0.00 | 997.7 | |
| 20260505050535 | -17 | 180 | 1.6 | 8.0 | 0.00 | 0.00 | 0.00 | 997.5 | |
| 20260505041503 | -17 | 311 | 1.6 | 4.8 | 0.00 | 0.00 | 0.00 | 996.7 | |
| 20260505041001 | -17 | 319 | 3.2 | 4.8 | 0.00 | 0.00 | 0.00 | 996.9 | |
| 20260505040458 | -17 | 279 | 3.2 | 6.4 | 0.00 | 0.00 | 0.00 | 996.7 | |
| 20260505035954 | -17 | 264 | 4.8 | 4.8 | 0.00 | 0.00 | 0.00 | 996.5 | |
| 20260505035450 | -17 | 117 | 1.6 | 1.6 | 0.00 | 0.00 | 0.00 | 996.5 | |
| 20260505034948 | -17 | 253 | 0.0 | 6.4 | 0.00 | 0.00 | 0.00 | 996.4 | |
| 20260505034444 | -17 | 212 | 3.2 | 6.4 | 0.00 | 0.00 | 0.00 | 996.2 | |
| 20260505033941 | -17 | 265 | 3.2 | 8.0 | 0.00 | 0.00 | 0.00 | 996.2 | |
| 20260505033438 | -17 | 252 | 8.0 | 9.7 | 0.00 | 0.00 | 0.00 | 996.0 | |
| 20260505032936 | -17 | 114 | 1.6 | 3.2 | 0.00 | 0.00 | 0.00 | 996.0 | |
| 20260505032433 | -17 | 109 | 3.2 | 4.8 | 0.00 | 0.00 | 0.00 | 996.1 | |
| 20260505031929 | -17 | 198 | 0.0 | 3.2 | 0.00 | 0.00 | 0.00 | 996.0 | |
| 20260505031427 | -17 | 180 | 0.0 | 4.8 | 0.00 | 0.00 | 0.00 | 995.9 | |
| 20260505030923 | -17 | 212 | 3.2 | 3.2 | 0.00 | 0.00 | 0.00 | 995.8 | |
| 20260505030419 | -17 | 174 | 1.6 | 3.2 | 0.00 | 0.00 | 0.00 | 995.6 | |
| 20260505025915 | -17 | 255 | 3.2 | 8.0 | 0.00 | 0.00 | 0.00 | 995.5 | |
| 20260505025412 | -17 | 236 | 4.8 | 11.3 | 0.00 | 0.00 | 0.00 | 995.5 | |
| 20260505024911 | -17 | 262 | 3.2 | 8.0 | 0.00 | 0.00 | 0.00 | 995.4 | |
| 20260505024408 | -17 | 272 | 8.0 | 11.3 | 0.00 | 0.00 | 0.00 | 995.4 | |
| 20260505023905 | -17 | 273 | 4.8 | 8.0 | 0.00 | 0.00 | 0.00 | 995.2 | |
| 20260505023402 | -17 | 228 | 9.7 | 12.9 | 0.00 | 0.00 | 0.00 | 995.2 | |
| 20260505022859 | -17 | 300 | 0.0 | 9.7 | 0.00 | 0.00 | 0.00 | 995.2 | |
| 20260505022356 | -17 | 277 | 3.2 | 14.5 | 0.00 | 0.00 | 0.00 | 995.3 | |
| 20260505021854 | -17 | 259 | 4.8 | 11.3 | 0.00 | 0.00 | 0.00 | 995.1 | |
| 20260505021350 | -17 | 278 | 8.0 | 14.5 | 0.00 | 0.00 | 0.00 | 995.0 | |
| 20260505020846 | -17 | 254 | 6.4 | 12.9 | 0.00 | 0.00 | 0.00 | 994.9 | |
| 20260505020341 | -17 | 282 | 9.7 | 11.3 | 0.00 | 0.00 | 0.00 | 994.9 | |
| 20260505015839 | -17 | 240 | 8.0 | 14.5 | 0.00 | 0.00 | 0.00 | 995.2 | |
| 20260505015336 | -17 | 242 | 9.7 | 14.5 | 0.00 | 0.00 | 0.00 | 995.0 | |
| 20260505014833 | -17 | 250 | 4.8 | 14.5 | 0.00 | 0.00 | 0.00 | 995.1 | |
| 20260505014330 | -17 | 281 | 14.5 | 14.5 | 0.00 | 0.00 | 0.00 | 994.9 |